Flag for Slovakia Weather past 2 weeks in Prievidza, Slovakia

Now
48 °F

Cool.


Feels Like: 47 °F
Forecast: 45 / 75 °F
Wind: 3 mph from Northeast

Location: Prievidza


UV Index: 3 (Moderate)

Visibility: 31 mi


Pressure: 29.87 "Hg

Humidity: 80%

Dew point: 42 °F

Location of PrievidzaLocation

Historic Weather in Prievidza

°F

Prievidza temperature yesterday

Maximum temperature yesterday: 67 °F (at 4:00 PM)
Minimum temperature yesterday: 44 °F (at 3:00 AM)
Average temperature yesterday: 54 °F

Past Weeks' High & Low Weather Summary

 TemperatureHumidityPressure
High72 °F (Apr 8, 4:00 PM)97% (Apr 10, 5:00 AM)30.27 "Hg (Apr 10, 5:00 AM)
Low30 °F (Apr 11, 6:00 AM)21% (Apr 12, 4:00 PM)29.71 "Hg (Apr 19, 1:00 PM)
Average50 °F68%29.99 "Hg
* Reported Apr 6 2:00 AM — Apr 21 2:00 AM, Prievidza, Weather by CustomWeather, © 2014

Note: Actual official high and low records may vary slightly from our data, if they occured in-between our weather recording intervals... More about our weather records

Advertising

Historic Weather Conditions — Data for Previous 24 hours

 ConditionsComfort  
Time TempWeatherWind HumidityBarometerVisibility
2:00 AM
Apr 21
48 °FCool.3 mph80%29.87 "Hg31 mi
1:00 AM49 °FCool.3 mph78%29.88 "Hg31 mi
12:00 AM48 °FCool.3 mph81%29.88 "Hg28 mi
11:00 PM
Apr 20
48 °FCool.5 mph81%29.88 "Hg28 mi
10:00 PM48 °FPassing clouds.5 mph82%29.87 "Hg22 mi
9:00 PM51 °FPassing clouds.3 mph73%29.85 "Hg31 mi
8:00 PM53 °FPassing clouds.3 mph67%29.83 "Hg31 mi
7:00 PM54 °FPartly sunny.2 mph68%29.83 "Hg31 mi
6:00 PM58 °FOvercast.N/A50%29.81 "Hg31 mi
5:00 PM59 °FSprinkles. Overcast.7 mph51%29.81 "Hg17 mi
4:00 PM67 °FPartly sunny.N/A29%29.78 "Hg25 mi
3:00 PM65 °FPartly sunny.5 mph33%29.79 "Hg25 mi
2:00 PM65 °FPartly sunny.6 mph33%29.81 "Hg31 mi
1:00 PM65 °FPartly sunny.6 mph35%29.81 "Hg25 mi
12:00 PM62 °FPartly sunny.5 mph42%29.83 "Hg28 mi
11:00 AM62 °FScattered clouds.5 mph42%29.84 "Hg25 mi
10:00 AM62 °FScattered clouds.5 mph42%29.84 "Hg19 mi
9:00 AM54 °FPartly sunny.6 mph66%29.84 "Hg22 mi
8:00 AM51 °FPartly sunny.5 mph71%29.85 "Hg25 mi
7:00 AM47 °FCool.3 mph78%29.85 "Hg31 mi
6:00 AM47 °FCool.2 mph76%29.85 "Hg31 mi
5:00 AM45 °FCool.3 mph78%29.85 "Hg31 mi
4:00 AM47 °FCool.5 mph72%29.85 "Hg31 mi
3:00 AM44 °FQuite cool.5 mph83%29.85 "Hg31 mi
Weather by CustomWeather, © 2014

See weather overview